timestamp,wind_dir_avg,wind_spd_avg,wind_spd_max_dir,wind_spd_gust,battery_voltage,lat,long
2022-10-04 00:04:00+00:00,245.0,4.21,248.0,4.95,12.49,47.59359,-54.27349
2022-10-04 00:14:00+00:00,259.0,4.38,260.0,4.75,12.49,47.59359,-54.27349
2022-10-04 00:24:00+00:00,261.0,4.48,258.0,4.79,12.49,47.59359,-54.27349
2022-10-04 00:34:00+00:00,269.0,4.39,269.0,4.73,12.49,47.59359,-54.27349
2022-10-04 00:44:00+00:00,275.0,4.58,277.0,5.27,12.49,47.59359,-54.27349
2022-10-04 00:54:00+00:00,273.0,4.39,271.0,4.94,12.49,47.59359,-54.27349
2022-10-04 01:04:00+00:00,271.0,3.89,275.0,4.42,12.49,47.59359,-54.27349
2022-10-04 01:14:00+00:00,281.0,3.33,277.0,3.67,12.49,47.59359,-54.27349
2022-10-04 01:24:00+00:00,274.0,4.48,275.0,5.08,12.49,47.59359,-54.27349
2022-10-04 01:34:00+00:00,273.0,4.32,276.0,4.67,12.49,47.59359,-54.27349
2022-10-04 01:44:00+00:00,269.0,4.15,271.0,4.48,12.49,47.59359,-54.27349
2022-10-04 01:54:00+00:00,279.0,4.66,290.0,5.1,12.49,47.59359,-54.27349
2022-10-04 02:04:00+00:00,272.0,4.11,269.0,4.6,12.49,47.59359,-54.27349
2022-10-04 02:14:01+00:00,286.0,4.72,287.0,5.12,12.49,47.59359,-54.27349
2022-10-04 02:24:01+00:00,295.0,5.06,293.0,5.42,12.49,47.59359,-54.27349
2022-10-04 02:34:01+00:00,291.0,4.75,295.0,5.77,12.49,47.59359,-54.27349
2022-10-04 02:44:01+00:00,295.0,4.99,297.0,5.71,12.49,47.59359,-54.27349
2022-10-04 02:54:01+00:00,293.0,6.65,298.0,8.3,12.49,47.59359,-54.27349
2022-10-04 03:04:01+00:00,286.0,6.13,281.0,7.1,12.49,47.59359,-54.27349
2022-10-04 03:14:00+00:00,292.0,6.49,306.0,8.29,12.41,47.59359,-54.27349
2022-10-04 03:24:00+00:00,310.0,6.04,309.0,7.08,12.41,47.59359,-54.27349
2022-10-04 03:34:00+00:00,312.0,6.35,316.0,7.08,12.41,47.59359,-54.27349
2022-10-04 03:44:00+00:00,318.0,6.18,311.0,6.98,12.41,47.59359,-54.27349
2022-10-04 03:54:00+00:00,318.0,5.88,324.0,6.77,12.41,47.59359,-54.27349
2022-10-04 04:04:00+00:00,321.0,6.15,320.0,6.76,12.41,47.59359,-54.27349
2022-10-04 04:14:00+00:00,320.0,5.92,324.0,6.8,12.41,47.59359,-54.27349
2022-10-04 04:24:00+00:00,325.0,5.67,324.0,6.21,12.41,47.59359,-54.27349
2022-10-04 04:34:00+00:00,337.0,5.05,329.0,6.09,12.41,47.59359,-54.27349
2022-10-04 04:44:00+00:00,341.0,4.32,339.0,5.12,12.41,47.59359,-54.27349
2022-10-04 04:54:00+00:00,343.0,4.17,344.0,4.7,12.41,47.59359,-54.27349
2022-10-04 05:04:00+00:00,321.0,4.23,322.0,5.13,12.41,47.59359,-54.27349
2022-10-04 05:14:00+00:00,318.0,4.8,314.0,5.75,12.41,47.59359,-54.27349
2022-10-04 05:24:00+00:00,313.0,5.34,309.0,6.2,12.41,47.59359,-54.27349
2022-10-04 05:34:00+00:00,321.0,5.3,313.0,6.09,12.41,47.59359,-54.27349
2022-10-04 05:44:00+00:00,312.0,5.39,313.0,6.33,12.41,47.59359,-54.27349
2022-10-04 05:54:00+00:00,316.0,5.95,320.0,6.65,12.41,47.59359,-54.27349
2022-10-04 06:04:00+00:00,323.0,4.87,323.0,5.36,12.41,47.59359,-54.27349
2022-10-04 06:14:01+00:00,305.0,3.71,306.0,4.58,12.41,47.59359,-54.27349
2022-10-04 06:24:01+00:00,319.0,3.22,318.0,4.5,12.41,47.59359,-54.27349
2022-10-04 06:34:01+00:00,321.0,4.02,323.0,4.62,12.41,47.59359,-54.27349
2022-10-04 06:44:01+00:00,334.0,1.85,335.0,2.63,12.41,47.59359,-54.27349
2022-10-04 06:54:01+00:00,293.0,3.02,299.0,3.84,12.41,47.59359,-54.27349
2022-10-04 07:04:01+00:00,280.0,3.78,280.0,4.44,12.41,47.59359,-54.27349
2022-10-04 07:14:01+00:00,261.0,4.08,263.0,4.53,12.33,47.59359,-54.27349
2022-10-04 07:24:01+00:00,266.0,3.61,272.0,4.34,12.33,47.59359,-54.27349
2022-10-04 07:34:01+00:00,279.0,3.3,283.0,3.86,12.33,47.59359,-54.27349
2022-10-04 07:44:01+00:00,276.0,3.57,273.0,4.04,12.33,47.59359,-54.27349
2022-10-04 07:54:01+00:00,295.0,3.42,292.0,4.33,12.33,47.59359,-54.27349
2022-10-04 08:04:01+00:00,291.0,4.16,288.0,4.87,12.33,47.59359,-54.27349
2022-10-04 08:14:00+00:00,289.0,4.55,288.0,5.25,12.33,47.59359,-54.27349
2022-10-04 08:24:00+00:00,289.0,3.9,286.0,5.06,12.33,47.59359,-54.27349
2022-10-04 08:34:00+00:00,291.0,4.12,293.0,4.82,12.33,47.59359,-54.27349
2022-10-04 08:44:00+00:00,299.0,4.03,301.0,4.69,12.33,47.59359,-54.27349
2022-10-04 08:54:00+00:00,301.0,2.46,286.0,3.24,12.33,47.59359,-54.27349
2022-10-04 09:04:00+00:00,287.0,2.68,286.0,3.28,12.33,47.59359,-54.27349
2022-10-04 09:14:01+00:00,261.0,3.15,273.0,3.95,12.25,47.59359,-54.27349
2022-10-04 09:24:01+00:00,254.0,4.22,254.0,4.86,12.25,47.59359,-54.27349
2022-10-04 09:34:01+00:00,253.0,3.65,256.0,4.14,12.25,47.59359,-54.27349
2022-10-04 09:44:01+00:00,260.0,3.37,266.0,3.91,12.25,47.59359,-54.27349
2022-10-04 09:54:01+00:00,257.0,4.08,253.0,4.96,12.25,47.59359,-54.27349
2022-10-04 10:04:01+00:00,264.0,4.34,272.0,5.23,12.25,47.59359,-54.27349
2022-10-04 10:14:01+00:00,255.0,4.67,254.0,5.38,12.89,47.59359,-54.27349
2022-10-04 10:24:01+00:00,243.0,4.46,233.0,5.52,12.89,47.59359,-54.27349
2022-10-04 10:34:01+00:00,245.0,5.19,242.0,5.76,12.89,47.59359,-54.27349
2022-10-04 10:44:01+00:00,267.0,5.69,265.0,6.44,12.89,47.59359,-54.27349
2022-10-04 10:54:01+00:00,251.0,5.29,250.0,6.0,12.89,47.59359,-54.27349
2022-10-04 11:04:01+00:00,251.0,6.15,239.0,7.17,12.89,47.59359,-54.27349
2022-10-04 11:14:01+00:00,258.0,6.59,254.0,8.45,14.08,47.59359,-54.27349
2022-10-04 11:24:01+00:00,260.0,6.91,264.0,7.45,14.08,47.59359,-54.27349
2022-10-04 11:34:01+00:00,258.0,7.09,257.0,7.79,14.08,47.59359,-54.27349
2022-10-04 11:44:01+00:00,248.0,6.69,250.0,7.55,14.08,47.59359,-54.27349
2022-10-04 11:54:01+00:00,250.0,6.23,242.0,7.51,14.08,47.59359,-54.27349
2022-10-04 12:04:01+00:00,253.0,7.38,251.0,8.07,14.08,47.59359,-54.27349
2022-10-04 12:14:01+00:00,249.0,7.39,253.0,8.57,14.32,47.59359,-54.27349
2022-10-04 12:24:01+00:00,243.0,7.07,242.0,8.38,14.32,47.59359,-54.27349
2022-10-04 12:34:01+00:00,232.0,7.23,234.0,8.02,14.32,47.59359,-54.27349
2022-10-04 12:44:01+00:00,247.0,7.78,251.0,9.02,14.32,47.59359,-54.27349
2022-10-04 12:54:01+00:00,239.0,8.53,254.0,11.13,14.32,47.59359,-54.27349
2022-10-04 13:04:01+00:00,234.0,8.43,232.0,9.49,14.32,47.59359,-54.27349
2022-10-04 13:14:00+00:00,229.0,7.33,231.0,8.28,14.4,47.59359,-54.27349
2022-10-04 13:24:00+00:00,240.0,7.75,239.0,9.13,14.4,47.59359,-54.27349
2022-10-04 13:34:00+00:00,245.0,9.04,248.0,11.96,14.4,47.59359,-54.27349
2022-10-04 13:44:00+00:00,231.0,7.78,232.0,9.49,14.4,47.59359,-54.27349
2022-10-04 13:54:00+00:00,233.0,7.09,232.0,8.03,14.4,47.59359,-54.27349
2022-10-04 14:04:00+00:00,250.0,9.03,247.0,11.0,14.4,47.59359,-54.27349
2022-10-04 14:14:01+00:00,244.0,7.4,251.0,8.79,13.53,47.59359,-54.27349
2022-10-04 14:24:01+00:00,245.0,8.36,240.0,9.71,13.53,47.59359,-54.27349
2022-10-04 14:34:01+00:00,230.0,7.94,232.0,9.96,13.53,47.59359,-54.27349
2022-10-04 14:44:01+00:00,229.0,7.05,231.0,8.37,13.53,47.59359,-54.27349
2022-10-04 14:54:01+00:00,225.0,7.33,222.0,8.8,13.53,47.59359,-54.27349
2022-10-04 15:04:01+00:00,232.0,6.86,230.0,7.86,13.53,47.59359,-54.27349
2022-10-04 15:14:00+00:00,227.0,7.51,229.0,8.56,13.84,47.59359,-54.27349
2022-10-04 15:24:00+00:00,229.0,6.91,229.0,7.88,13.84,47.59359,-54.27349
2022-10-04 15:34:00+00:00,228.0,7.02,226.0,8.49,13.84,47.59359,-54.27349
2022-10-04 15:44:00+00:00,250.0,8.04,253.0,8.99,13.84,47.59359,-54.27349
2022-10-04 15:54:00+00:00,233.0,7.06,232.0,7.79,13.84,47.59359,-54.27349
2022-10-04 16:04:00+00:00,232.0,8.01,233.0,9.14,13.84,47.59359,-54.27349
2022-10-04 16:14:00+00:00,238.0,6.82,241.0,8.06,14.4,47.59359,-54.27349
2022-10-04 16:24:00+00:00,244.0,8.83,249.0,10.14,14.4,47.59359,-54.27349
2022-10-04 16:34:00+00:00,255.0,8.48,259.0,9.84,14.4,47.59359,-54.27349
2022-10-04 16:44:00+00:00,249.0,8.35,250.0,10.0,14.4,47.59359,-54.27349
2022-10-04 16:54:00+00:00,246.0,10.08,248.0,11.13,14.4,47.59359,-54.27349
2022-10-04 17:04:00+00:00,252.0,7.65,255.0,8.64,14.4,47.59359,-54.27349
2022-10-04 17:14:01+00:00,248.0,9.43,250.0,10.74,14.24,47.59359,-54.27349
2022-10-04 17:24:01+00:00,237.0,8.36,231.0,9.71,14.24,47.59359,-54.27349
2022-10-04 17:34:01+00:00,246.0,9.49,247.0,11.37,14.24,47.59359,-54.27349
2022-10-04 17:44:01+00:00,255.0,8.4,251.0,10.19,14.24,47.59359,-54.27349
2022-10-04 17:54:01+00:00,258.0,9.65,259.0,10.8,14.24,47.59359,-54.27349
2022-10-04 18:04:01+00:00,256.0,10.67,256.0,11.98,14.24,47.59359,-54.27349
2022-10-04 18:14:00+00:00,258.0,9.85,261.0,11.35,14.32,47.59359,-54.27349
2022-10-04 18:24:00+00:00,255.0,11.18,255.0,12.18,14.32,47.59359,-54.27349
2022-10-04 18:34:00+00:00,263.0,9.18,260.0,10.7,14.32,47.59359,-54.27349
2022-10-04 18:44:00+00:00,255.0,9.59,257.0,11.14,14.32,47.59359,-54.27349
2022-10-04 18:54:00+00:00,249.0,8.65,255.0,10.54,14.32,47.59359,-54.27349
2022-10-04 19:04:00+00:00,254.0,7.89,246.0,9.37,14.32,47.59359,-54.27349
2022-10-04 19:14:01+00:00,247.0,8.94,252.0,10.76,13.84,47.59359,-54.27349
2022-10-04 19:24:01+00:00,248.0,10.15,249.0,11.07,13.84,47.59359,-54.27349
2022-10-04 19:34:01+00:00,250.0,9.1,249.0,9.88,13.84,47.59359,-54.27349
2022-10-04 19:44:01+00:00,249.0,9.57,249.0,10.72,13.84,47.59359,-54.27349
2022-10-04 19:54:01+00:00,256.0,9.01,259.0,10.05,13.84,47.59359,-54.27349
2022-10-04 20:04:01+00:00,260.0,8.99,253.0,10.36,13.84,47.59359,-54.27349
2022-10-04 20:14:00+00:00,261.0,10.05,261.0,11.1,13.76,47.59359,-54.27349
2022-10-04 20:24:00+00:00,257.0,10.59,258.0,11.63,13.76,47.59359,-54.27349
2022-10-04 20:34:00+00:00,259.0,8.27,264.0,9.57,13.76,47.59359,-54.27349
2022-10-04 20:44:00+00:00,257.0,9.98,256.0,11.28,13.76,47.59359,-54.27349
2022-10-04 20:54:00+00:00,256.0,8.26,258.0,9.71,13.76,47.59359,-54.27349
2022-10-04 21:04:00+00:00,255.0,9.65,258.0,10.62,13.76,47.59359,-54.27349
2022-10-04 21:14:00+00:00,248.0,7.06,261.0,9.95,13.13,47.59359,-54.27349
2022-10-04 21:24:00+00:00,252.0,8.56,254.0,10.09,13.13,47.59359,-54.27349
2022-10-04 21:34:00+00:00,250.0,7.31,247.0,8.97,13.13,47.59359,-54.27349
2022-10-04 21:44:00+00:00,247.0,6.76,242.0,7.63,13.13,47.59359,-54.27349
2022-10-04 21:54:00+00:00,244.0,7.39,244.0,9.34,13.13,47.59359,-54.27349
2022-10-04 22:04:00+00:00,241.0,8.18,240.0,9.35,13.13,47.59359,-54.27349
2022-10-04 22:14:00+00:00,238.0,8.84,241.0,10.18,12.65,47.59359,-54.27349
2022-10-04 22:24:00+00:00,241.0,7.53,251.0,8.94,12.65,47.59359,-54.27349
2022-10-04 22:34:00+00:00,244.0,8.06,244.0,9.63,12.65,47.59359,-54.27349
2022-10-04 22:44:00+00:00,243.0,9.67,244.0,11.73,12.65,47.59359,-54.27349
2022-10-04 22:54:00+00:00,248.0,10.03,248.0,11.52,12.65,47.59359,-54.27349
2022-10-04 23:04:00+00:00,248.0,10.68,249.0,12.71,12.65,47.59359,-54.27349
2022-10-04 23:14:00+00:00,251.0,9.58,250.0,10.64,12.57,47.59359,-54.27349
2022-10-04 23:24:00+00:00,253.0,10.18,258.0,11.68,12.57,47.59359,-54.27349
2022-10-04 23:34:00+00:00,252.0,10.39,254.0,11.12,12.57,47.59359,-54.27349
2022-10-04 23:44:00+00:00,242.0,10.23,244.0,12.2,12.57,47.59359,-54.27349
2022-10-04 23:54:00+00:00,248.0,10.81,247.0,11.99,12.57,47.59359,-54.27349
